Location: Castelbiague
(43.0361°N, 0.9246°E)
Time: 15:24:58
(UTC+00:00)

Cosmos 2058 Rocket - Pass Details

Date: 17 June 2021
Orbit: 609 x 640 km, 82.5° (Epoch: 05 August)

Event Time Altitude Azimuth Distance (km) Brightness Sun altitude
Rises 23:37:47 0° 346° (NNW) 2,929 7.9 -23.4°
Reaches altitude 10° 23:40:05 10° 341° (NNW) 2,012 6.7 -23.4°
Maximum altitude 23:44:23 50° 267° (W) 798 3.5 -23.5°
Enters shadow 23:44:34 49° 258° (WSW) 802 3.5 -23.5°
